Regional Weather Roundup
Issued by NWS Wakefield, VA

Home | Current Version | Previous Version | Text Only | Print | Product List | Glossary On
Versions: 1 2 3 4 5 6 7 8 9 10 11 12 13 14 15 16 17 18 19 20 21 22 23 24 25 26 27 28 29 30 31 32 33 34 35 36 37 38 39 40 41 42 43 44 45 46 47 48 49 50
000
ASUS41 KAKQ 051810
RWRAKQ

REGIONAL WEATHER ROUNDUP
NATIONAL WEATHER SERVICE WAKEFIELD VA
100 PM EST THU MAR 05 2015

Note: "fair" indicates few or no clouds below 12,000 feet with no
significant weather and/or obstructions to visibility. * = Denotes
station may not report precipitation (e.g., rain,snow,etc.),
thunder or fog.

VAZ042-051-052>054-056-051900-
NORTHERN VIRGINIA

CITY           SKY/WX    TMP DP  RH WIND       PRES   REMARKS
WASH NATIONAL  LGT SNOW  32  27  80 N15       30.18R VSB 1   WCI  22
DULLES         SNOW      27  25  93 NW9       30.19R VSB 1/2
FORT BELVOIR   LGT SNOW  30  27  86 NW10      30.19R FOG     WCI  21
QUANTICO       LGT SNOW  31  28  89 N13       30.20R VSB 3/4 WCI  21
FREDERICKSBRG* LGT SNOW  32  32 100 N7        30.18R
STAFFORD*      LGT SNOW  30  50 100 CALM      30.23R VSB 1
WARRENTON      LGT SNOW  31  30  99 N14       30.19R VSB 3/4 WCI  20
CULPEPER*      SNOW      28  28 100 N10       30.21R VSB 1/2 WCI  19
MANASSAS*      CLOUDY    30  28  93 NW12      30.20R VSB 3/4 WCI  21
LEESBURG*      LGT SNOW  28  28 100 N12       30.21R VSB 3/4 WCI  18
WINCHESTER     SNOW      27  21  80 N7        30.19R VSB 1/2
FRONT ROYAL*   CLOUDY    27  23  86 N7        30.19  VSB<1/4
LURAY*         HVY SNOW  30  30 100 E5        30.17R VSB 1/4
$$

VAZ048-049-060>072-079>083-051900-
CENTRAL AND SOUTH CENTRAL VIRGINIA

CITY           SKY/WX    TMP DP  RH WIND       PRES   REMARKS
RICHMOND       LGTSLEET  34  31  88 N9        30.12R FOG
CHESTERFIELD*  CLOUDY    36  23  60 N8        30.12R
PETERSBURG*    LGT RAIN  37  35  96 N13       30.10S
HANOVER        MIX PCPN  33  31  92 N6        30.15R FOG
TAPPAHANNOCK*  MIX PCPN  34  32  93 N7        30.11F
QUINTON*       CLOUDY    33  32  95 N6        30.10F
CHARLOTTSVILLE SNOW      30  28  92 NE9       30.15R VSB 1/2
GORDONSVILLE*  FOG       28  27  93 NE9       30.17R VSB 1/2
ORANGE*        SNOW      30  30 100 N8        30.19R VSB 1/2
LOUISA*        LGT SNOW  30  28  93 N6        30.16R
BUMPASS*       CLOUDY    31  28  90 N8G18     30.15R
FARMVILLE*     LGT RAIN  35  35 100 NE20      29.87R VSB 1   WCI  24
CREWE*         CLOUDY    34  32  94 N5        30.12R
FORT PICKETT*  CLOUDY    34  33  97 N13G20    30.10R
CHASE CITY*    CLOUDY    37  37 100 N10G16    30.12R
CLARKSVILLE*   CLOUDY    36  36 100 N9        30.08R
SOUTH HILL*    CLOUDY    36  35  95 N8G17     30.10R
LAWRENCEVILLE* CLOUDY    36  35  97 N6G16     30.05S
EMPORIA*       MIX PCPN  34  34 100 N8G20     30.07F
$$

VAZ088>098-051900-
SOUTHEAST VIRGINIA

CITY           SKY/WX    TMP DP  RH WIND       PRES   REMARKS
NORFOLK        LGT RAIN  35  32  88 N20G26    30.08S FOG     WCI  24
VIRGINIA BEACH LGT RAIN  37  34  89 N13       30.07R FOG
NORFOLK NAVAL  LGT RAIN  38  33  82 N22G29    30.09S FOG
WEST POINT*    CLOUDY    37  33  88 N7        30.11F
SALUDA*        CLOUDY    33  32  94 NE8G16    30.09F
NEWPORT NEWS   LGT RAIN  38  34  85 NE9       30.08F FOG
LANGLEY AFB    MIX PCPN  35  34  94 N14G22    30.07F FOG
FORT EUSTIS    LGT RAIN  36  36 100 NE7       30.05F
WILLIAMSBURG*  PTSUNNY   37  37 100 NE7       30.08F
HR EXEC AP*    CLOUDY    36  32  87 NE8G21    30.09F
FRANKLIN*      RAIN      36  35  96 N8        30.06F
WAKEFIELD      LGT RAIN  36  33  89 NE7       30.06F FOG
$$

VAZ020-022-025-037-045-051900-
WEST CENTRAL AND SOUTHWEST VIRGINIA

CITY           SKY/WX    TMP DP  RH WIND       PRES   REMARKS
STAUNTON*      SNOW      28  26  91 NE15      30.14R VSB 1/4 WCI  16
WAYNESBORO*    CLOUDY    26  25  96 N8        30.11R VSB 1/4
HOT SPRINGS VA SNOW      22  22 100 CALM      29.94F VSB 1/4
LYNCHBURG      SLEET     32  32 100 NE7       30.11F FOG
DANVILLE       LGT RAIN  38  34  85 NE16G22   30.11F FOG
SOUTH BOSTON*  CLOUDY    36  34  92 N9G21     30.13R
MARTINSVILLE   LGT RAIN  41  41 100 NE10G18   30.08F
ROANOKE        LGT SNOW  34  30  86 N8        30.10R VSB 3/4
BLACKSBURG     SNOW      29  29  99 W3        30.08S VSB 1/4
DUBLIN*        LGT SNOW  31  30  97 NW8       30.08R
MARION*        RAIN      33  30  89 W3        30.05F
HILLSVILLE*    MIX PCPN  32  32 100 N7        30.02R
RICHLANDS*     LGT SNOW  25  23  92 NW6       30.06F
WISE*          CLOUDY    23  21  93 N9        30.08F
ABINGDON*      MIX PCPN  32  30  93 N5        30.04F
$$

MDZ021>025-VAZ099-100-051900-
SOUTHERN MARYLAND AND THE DELMARVA PENINSULA

CITY           SKY/WX    TMP DP  RH WIND       PRES   REMARKS
PATUXENT RIVER LGTSLEET  32  29  88 N15       30.10F FOG     WCI  22
BAY BRIDGE APT LGT SNOW  30  30 100 N9G18     30.17R
LEONARDTOWN    CLOUDY    32  32 100 N6        30.12F
DOVER          LGT SNOW  32  32 100 N15       30.13F FOG     WCI  22
GEORGETOWN     MIX PCPN  32  30  92 N12       30.12F FOG     WCI  23
EASTON         LGT SNOW  32  32 100 NE10      30.16F VSB 1   WCI  24
CAMBRIDGE      CLOUDY    34  32  93 N9        30.10F
SALISBURY      RAIN      35  32  88 NE7       30.11R FOG
OCEAN CITY     LGT RAIN  33  32  96 NE13G21   30.10S FOG     WCI  24
WALLOPS ISLAND LGT RAIN  35  33  92 NE15G22   30.08F
ACCOMACK*      LGT RAIN  34  32  93 N12G17    30.08F
$$

NCZ012>017-030>032-051900-
NORTH CENTRAL AND EASTERN NORTH CAROLINA

CITY           SKY/WX    TMP DP  RH WIND       PRES   REMARKS
ROANOKE RAPIDS LGT RAIN  37  36  93 NE13G23   30.03F
RALEIGH        LGT RAIN  39  36  87 NE20G26   29.98R FOG
ELIZABETH CITY LGT RAIN  39  36  89 N18       30.03S
AHOSKIE*       LGT RAIN  36  34  94 N12G21    30.04F
EDENTON*       DRIZZLE   39  38  95 NE9       30.02F
CURRITUCK*     DRIZZLE   38  36  92 N20G26    30.06R
KILL DEVIL HLS CLOUDY    37  37 100 N13G20    29.99F FOG
MANTEO         CLOUDY    37  37 100 N20G28    30.00F
CAPE HATTERAS  FOG       44  43  96 N12G22    29.97F VSB 1
TARBORO*       DRIZZLE   40  38  91 NE18      30.02S
GOLDSBORO      LGT RAIN  52  52 100 N15       29.91R
WASHINGTON     CLOUDY    42  40  93 NE9G20    29.99S
GREENVILLE     LGT RAIN  43  41  93 NE9       30.00F
NEW BERN         N/A     83  60  45 SW28G38   29.90F
WILMINGTON     FAIR      74  63  68 SW16G26   29.93F
$$

VAZ048-051900-
ELSEWHERE

CITY           SKY/WX    TMP DP  RH WIND       PRES   REMARKS
HARRISBURG PA  LGT SNOW  21  16  81 N8        30.21R
BALTIMORE      LGT SNOW  29  27  92 N8        30.15R VSB 1
ANNAPOLIS      LGT SNOW  31  28  89 N12       30.16S VSB 1   WCI  22
ANDREWS AFB    LGT SNOW  30  28  93 NW15      30.14R VSB 1   WCI  19
PHILADELPHIA   LGT SNOW  27  23  85 N14       30.16F VSB 3/4 WCI  16
HENDERSON NC   RAIN      37  35  92 N10       30.05R
GREENSBORO     LGT RAIN  40  38  93 NE13G22   30.03S FOG
ROCKY MOUNT    RAIN      40  38  93 NE16G26   30.00R FOG
$$

VAZ100-051900-
MARINE

STATION/POSITION TIME  TEMP    WIND        PRES    WAVE   SWELL
                       AIR SEA DIR/SP/G            HT/PER HT/PER
                 (UTC) (F)     (DEG/KT/KT) (MB)    (FT/S) (FT/S)
BRANDYWINE LGT   1800   31 31   20/ 20/ 24 1020.1S
CAPE MAY NJ      1800   31 34  360/  8/ 11 1019.1F
LEWES DE         1800   32 32   20/ 14/ 18 1020.2R
15NM E FENWICK I 1800   33 35              1019.0R   6/ 5
OCEAN-CITY-INLET 1800   33 33   30/ 12/ 19 1019.1F
WACHAPREAGUE VA  1800   36 40   10/  6/ 10 1018.9F
THOMAS POINT MD  1800   29 31   10/ 19/ 20 1022.1R
COVE POINT MD    1800   30      20/  8/ 10 1019.5F
SOLOMONS ISLAND  1800      33                N/A
BISHOPS HEAD MD  1800   33 35  360/  8/ 13 1018.8F
CAMBRIDGE MD     1800   32 32   10/ 11/ 13 1019.8F
LEWISETTA VA     1800   32 35   20/  8/ 12 1019.0F
RAPPAHANNOCK LGT 1800          350/ 21/ 24 1019.2F
STINGRAY PT      1800   33      10/ 17/ 21   N/A
YORK RVR RNG VA  1800   35      20/ 19/ 23 1018.0F
YORKTOWN VA      1800   35 35   10/ 16/ 18 1018.7F
DOMINION TERM VA 1800   36      20/  9/ 16 1019.0R
KIPTOPEKE VA     1800      40   10/ 13/ 19   N/A
CHES BAY BRIDGE  1800   34 34  350/ 21/ 24 1018.7R
CAPE HENRY VA    1800   34     350/ 19/ 21 1017.2R
CHESAPEAKE LGHT  1700   35      20/ 18/ 19 1018.1F
WILLOUBY STN VA  1800   34      10/ 19/ 22 1019.0F
S CRANEY ISL VA  1800           10/ 16/ 20 1018.6R
CAPE HENRY BUOY  1800      36                N/A     4/ 6
1ST LANDING BUOY 1800   34     360/ 19/ 23 1017.9F
OFFSHORE WE BUOY 1800      37                N/A     6/ 6   2/11
64NM E OF VA BCH 1800   45 51   20/ 23/ 27 1014.3F   8/ 6   2/11
DUCK PIER NC     1800   36 36   10/ 19/ 23 1015.2F
44100 DUCK FRF   1800      38                N/A     6/ 6
44056 DUCK FRF   1800      36                N/A     5/ 6   2/11
OREGON INLET NC  1800   38 50  360/ 13/ 20 1015.5F
HATTERAS NC      1800      50   10/ 19/ 21 1015.2F
CAPE LOOKOUT NC  1800   59     230/ 13/ 18 1014.5F
$$


USA.gov is the U.S. government's official web portal to all federal, state and local government web resources and services.